Year,Month,Day,Hour,Minute,Value (Times are PST for temperature in C)
2012,08,24,00,00,11.80
2012,08,24,00,01,11.90
2012,08,24,00,02,12.00
2012,08,24,00,03,12.10
2012,08,24,00,04,12.20
2012,08,24,00,05,12.40
2012,08,24,00,06,12.50
2012,08,24,00,07,12.60
2012,08,24,00,08,12.80
2012,08,24,00,09,12.90
2012,08,24,00,10,13.00
2012,08,24,00,11,13.10
2012,08,24,00,12,13.20
2012,08,24,00,13,13.40
2012,08,24,00,14,13.50
2012,08,24,00,15,13.60
2012,08,24,00,16,13.70
2012,08,24,00,17,13.80
2012,08,24,00,18,14.00
2012,08,24,00,19,14.00
2012,08,24,00,20,14.10
2012,08,24,00,21,14.10
2012,08,24,00,22,14.20
2012,08,24,00,23,14.20
2012,08,24,00,24,14.20
2012,08,24,00,25,14.30
2012,08,24,00,26,14.30
2012,08,24,00,27,14.30
2012,08,24,00,28,14.30
2012,08,24,00,29,14.30
2012,08,24,00,30,14.30
2012,08,24,00,31,14.30
2012,08,24,00,32,14.30
2012,08,24,00,33,14.30
2012,08,24,00,34,14.30
2012,08,24,00,35,14.30
2012,08,24,00,36,14.30
2012,08,24,00,37,14.30
2012,08,24,00,38,14.30
2012,08,24,00,39,14.30
2012,08,24,00,40,14.40
2012,08,24,00,41,14.40
2012,08,24,00,42,14.40
2012,08,24,00,43,14.40
2012,08,24,00,44,14.40
2012,08,24,00,45,14.50
2012,08,24,00,46,14.50
2012,08,24,00,47,14.60
2012,08,24,00,48,14.60
2012,08,24,00,49,14.60
2012,08,24,00,50,14.60
2012,08,24,00,51,14.60
2012,08,24,00,52,14.60
2012,08,24,00,53,14.60
2012,08,24,00,54,14.60
2012,08,24,00,55,14.50
2012,08,24,00,56,14.50
2012,08,24,00,57,14.40
2012,08,24,00,58,14.40
2012,08,24,00,59,14.30
2012,08,24,01,00,14.30
2012,08,24,01,01,14.20
2012,08,24,01,02,14.20
2012,08,24,01,03,14.10
2012,08,24,01,04,14.00
2012,08,24,01,05,14.00
2012,08,24,01,06,13.90
2012,08,24,01,07,13.90
2012,08,24,01,08,13.90
2012,08,24,01,09,13.80
2012,08,24,01,10,13.80
2012,08,24,01,11,13.80
2012,08,24,01,12,13.80
2012,08,24,01,13,13.70
2012,08,24,01,14,13.70
2012,08,24,01,15,13.70
2012,08,24,01,16,13.70
2012,08,24,01,17,13.80
2012,08,24,01,18,13.80
2012,08,24,01,19,13.80
2012,08,24,01,20,13.80
2012,08,24,01,21,13.80
2012,08,24,01,22,13.80
2012,08,24,01,23,13.80
2012,08,24,01,24,13.80
2012,08,24,01,25,13.80
2012,08,24,01,26,13.90
2012,08,24,01,27,13.80
2012,08,24,01,28,13.80
2012,08,24,01,29,13.80
2012,08,24,01,30,13.80
2012,08,24,01,31,13.80
2012,08,24,01,32,13.80
2012,08,24,01,33,13.80
2012,08,24,01,34,13.70
2012,08,24,01,35,13.70
2012,08,24,01,36,13.70
2012,08,24,01,37,13.70
2012,08,24,01,38,13.70
2012,08,24,01,39,13.70
2012,08,24,01,40,13.70
2012,08,24,01,41,13.70
2012,08,24,01,42,13.70
2012,08,24,01,43,13.70
2012,08,24,01,44,13.60
2012,08,24,01,45,13.60
2012,08,24,01,46,13.60
2012,08,24,01,47,13.60
2012,08,24,01,48,13.60
2012,08,24,01,49,13.60
2012,08,24,01,50,13.60
2012,08,24,01,51,13.60
2012,08,24,01,52,13.50
2012,08,24,01,53,13.50
2012,08,24,01,54,13.40
2012,08,24,01,55,13.40
2012,08,24,01,56,13.40
2012,08,24,01,57,13.50
2012,08,24,01,58,13.50
2012,08,24,01,59,13.50
2012,08,24,02,00,13.50
2012,08,24,02,01,13.60
2012,08,24,02,02,13.60
2012,08,24,02,03,13.60
2012,08,24,02,04,13.60
2012,08,24,02,05,13.60
2012,08,24,02,06,13.60
2012,08,24,02,07,13.60
2012,08,24,02,08,13.60
2012,08,24,02,09,13.60
2012,08,24,02,10,13.70
2012,08,24,02,11,13.70
2012,08,24,02,12,13.70
2012,08,24,02,13,13.80
2012,08,24,02,14,13.80
2012,08,24,02,15,13.80
2012,08,24,02,16,13.80
2012,08,24,02,17,13.80
2012,08,24,02,18,13.80
2012,08,24,02,19,13.90
2012,08,24,02,20,13.90
2012,08,24,02,21,13.90
2012,08,24,02,22,13.90
2012,08,24,02,23,13.90
2012,08,24,02,24,13.90
2012,08,24,02,25,13.90
2012,08,24,02,26,13.80
2012,08,24,02,27,13.80
2012,08,24,02,28,13.80
2012,08,24,02,29,13.80
2012,08,24,02,30,13.70
2012,08,24,02,31,13.70
2012,08,24,02,32,13.70
2012,08,24,02,33,13.60
2012,08,24,02,34,13.60
2012,08,24,02,35,13.60
2012,08,24,02,36,13.60
2012,08,24,02,37,13.50
2012,08,24,02,38,13.50
2012,08,24,02,39,13.50
2012,08,24,02,40,13.50
2012,08,24,02,41,13.40
2012,08,24,02,42,13.40
2012,08,24,02,43,13.40
2012,08,24,02,44,13.30
2012,08,24,02,45,13.30
2012,08,24,02,46,13.20
2012,08,24,02,47,13.20
2012,08,24,02,48,13.10
2012,08,24,02,49,13.10
2012,08,24,02,50,13.00
2012,08,24,02,51,13.00
2012,08,24,02,52,12.90
2012,08,24,02,53,12.90
2012,08,24,02,54,12.90
2012,08,24,02,55,12.80
2012,08,24,02,56,12.70
2012,08,24,02,57,12.60
2012,08,24,02,58,12.50
2012,08,24,02,59,12.40
2012,08,24,03,00,12.20
2012,08,24,03,01,12.10
2012,08,24,03,02,11.90
2012,08,24,03,03,11.80
2012,08,24,03,04,11.70
2012,08,24,03,05,11.60
2012,08,24,03,06,11.60
2012,08,24,03,07,11.50
2012,08,24,03,08,11.50
2012,08,24,03,09,11.40
2012,08,24,03,10,11.40
2012,08,24,03,11,11.30
2012,08,24,03,12,11.30
2012,08,24,03,13,11.30
2012,08,24,03,14,11.30
2012,08,24,03,15,11.30
2012,08,24,03,16,11.20
2012,08,24,03,17,11.20
2012,08,24,03,18,11.20
2012,08,24,03,19,11.20
2012,08,24,03,20,11.20
2012,08,24,03,21,11.20
2012,08,24,03,22,11.30
2012,08,24,03,23,11.30
2012,08,24,03,24,11.20
2012,08,24,03,25,11.20
2012,08,24,03,26,11.20
2012,08,24,03,27,11.10
2012,08,24,03,28,11.10
2012,08,24,03,29,11.10
2012,08,24,03,30,11.10
2012,08,24,03,31,11.10
2012,08,24,03,32,11.10
2012,08,24,03,33,11.10
2012,08,24,03,34,11.10
2012,08,24,03,35,11.10
2012,08,24,03,36,11.00
2012,08,24,03,37,11.00
2012,08,24,03,38,10.90
2012,08,24,03,39,10.90
2012,08,24,03,40,10.80
2012,08,24,03,41,10.80
2012,08,24,03,42,10.70
2012,08,24,03,43,10.70
2012,08,24,03,44,10.70
2012,08,24,03,45,10.60
2012,08,24,03,46,10.60
2012,08,24,03,47,10.60
2012,08,24,03,48,10.60
2012,08,24,03,49,10.60
2012,08,24,03,50,10.60
2012,08,24,03,51,10.60
2012,08,24,03,52,10.70
2012,08,24,03,53,10.70
2012,08,24,03,54,10.70
2012,08,24,03,55,10.70
2012,08,24,03,56,10.70
2012,08,24,03,57,10.70
2012,08,24,03,58,10.70
2012,08,24,03,59,10.70
2012,08,24,04,00,10.70
2012,08,24,04,01,10.70
2012,08,24,04,02,10.70
2012,08,24,04,03,10.70
2012,08,24,04,04,10.70
2012,08,24,04,05,10.80
2012,08,24,04,06,10.80
2012,08,24,04,07,10.90
2012,08,24,04,08,11.00
2012,08,24,04,09,11.10
2012,08,24,04,10,11.10
2012,08,24,04,11,11.20
2012,08,24,04,12,11.20
2012,08,24,04,13,11.30
2012,08,24,04,14,11.30
2012,08,24,04,15,11.40
2012,08,24,04,16,11.40
2012,08,24,04,17,11.40
2012,08,24,04,18,11.50
2012,08,24,04,19,11.50
2012,08,24,04,20,11.50
2012,08,24,04,21,11.60
2012,08,24,04,22,11.60
2012,08,24,04,23,11.60
2012,08,24,04,24,11.70
2012,08,24,04,25,11.80
2012,08,24,04,26,11.80
2012,08,24,04,27,11.90
2012,08,24,04,28,11.90
2012,08,24,04,29,11.90
2012,08,24,04,30,12.00
2012,08,24,04,31,12.00
2012,08,24,04,32,12.10
2012,08,24,04,33,12.10
2012,08,24,04,34,12.10
2012,08,24,04,35,12.10
2012,08,24,04,36,12.00
2012,08,24,04,37,12.00
2012,08,24,04,38,12.00
2012,08,24,04,39,11.90
2012,08,24,04,40,11.80
2012,08,24,04,41,11.70
2012,08,24,04,42,11.60
2012,08,24,04,43,11.50
2012,08,24,04,44,11.40
2012,08,24,04,45,11.40
2012,08,24,04,46,11.30
2012,08,24,04,47,11.30
2012,08,24,04,48,11.20
2012,08,24,04,49,11.20
2012,08,24,04,50,11.20
2012,08,24,04,51,11.10
2012,08,24,04,52,11.10
2012,08,24,04,53,11.00
2012,08,24,04,54,10.90
2012,08,24,04,55,10.90
2012,08,24,04,56,10.90
2012,08,24,04,57,10.80
2012,08,24,04,58,10.80
2012,08,24,04,59,10.80
2012,08,24,05,00,10.80
2012,08,24,05,01,10.80
2012,08,24,05,02,10.80
2012,08,24,05,03,10.70
2012,08,24,05,04,10.70
2012,08,24,05,05,10.70
2012,08,24,05,06,10.70
2012,08,24,05,07,10.70
2012,08,24,05,08,10.60
2012,08,24,05,09,10.60
2012,08,24,05,10,10.60
2012,08,24,05,11,10.60
2012,08,24,05,12,10.60
2012,08,24,05,13,10.60
2012,08,24,05,14,10.60
2012,08,24,05,15,10.60
2012,08,24,05,16,10.60
2012,08,24,05,17,10.50
2012,08,24,05,18,10.50
2012,08,24,05,19,10.50
2012,08,24,05,20,10.40
2012,08,24,05,21,10.40
2012,08,24,05,22,10.40
2012,08,24,05,23,10.40
2012,08,24,05,24,10.50
2012,08,24,05,25,10.60
2012,08,24,05,26,10.60
2012,08,24,05,27,10.60
2012,08,24,05,28,10.70
2012,08,24,05,29,10.70
2012,08,24,05,30,10.80
2012,08,24,05,31,10.80
2012,08,24,05,32,10.80
2012,08,24,05,33,10.70
2012,08,24,05,34,10.70
2012,08,24,05,35,10.60
2012,08,24,05,36,10.60
2012,08,24,05,37,10.60
2012,08,24,05,38,10.50
2012,08,24,05,39,10.50
2012,08,24,05,40,10.40
2012,08,24,05,41,10.40
2012,08,24,05,42,10.40
2012,08,24,05,43,10.40
2012,08,24,05,44,10.40
2012,08,24,05,45,10.40
2012,08,24,05,46,10.40
2012,08,24,05,47,10.30
2012,08,24,05,48,10.30
2012,08,24,05,49,10.30
2012,08,24,05,50,10.20
2012,08,24,05,51,10.10
2012,08,24,05,52,10.10
2012,08,24,05,53,10.00
2012,08,24,05,54,9.90
2012,08,24,05,55,9.90
2012,08,24,05,56,9.90
2012,08,24,05,57,9.90
2012,08,24,05,58,9.90
2012,08,24,05,59,9.90
2012,08,24,06,00,9.90
2012,08,24,06,01,9.90
2012,08,24,06,02,9.90
2012,08,24,06,03,9.90
2012,08,24,06,04,9.90
2012,08,24,06,05,9.90
2012,08,24,06,06,9.90
2012,08,24,06,07,9.90
2012,08,24,06,08,9.80
2012,08,24,06,09,9.80
2012,08,24,06,10,9.80
2012,08,24,06,11,9.80
2012,08,24,06,12,9.70
2012,08,24,06,13,9.70
2012,08,24,06,14,9.70
2012,08,24,06,15,9.70
2012,08,24,06,16,9.70
2012,08,24,06,17,9.70
2012,08,24,06,18,9.70
2012,08,24,06,19,9.70
2012,08,24,06,20,9.70
2012,08,24,06,21,9.70
2012,08,24,06,22,9.70
2012,08,24,06,23,9.70
2012,08,24,06,24,9.70
2012,08,24,06,25,9.70
2012,08,24,06,26,9.70
2012,08,24,06,27,9.70
2012,08,24,06,28,9.70
2012,08,24,06,29,9.70
2012,08,24,06,30,9.80
2012,08,24,06,31,9.80
2012,08,24,06,32,9.80
2012,08,24,06,33,9.80
2012,08,24,06,34,9.90
2012,08,24,06,35,9.90
2012,08,24,06,36,10.00
2012,08,24,06,37,10.00
2012,08,24,06,38,10.10
2012,08,24,06,39,10.10
2012,08,24,06,40,10.10
2012,08,24,06,41,10.00
2012,08,24,06,42,10.00
2012,08,24,06,43,9.90
2012,08,24,06,44,9.90
2012,08,24,06,45,9.80
2012,08,24,06,46,9.80
2012,08,24,06,47,9.80
2012,08,24,06,48,9.80
2012,08,24,06,49,9.80
2012,08,24,06,50,9.80
2012,08,24,06,51,9.80
2012,08,24,06,52,9.90
2012,08,24,06,53,9.90
2012,08,24,06,54,9.90
2012,08,24,06,55,10.00
2012,08,24,06,56,10.00
2012,08,24,06,57,10.10
2012,08,24,06,58,10.20
2012,08,24,06,59,10.30
2012,08,24,07,00,10.30
2012,08,24,07,01,10.40
2012,08,24,07,02,10.40
2012,08,24,07,03,10.50
2012,08,24,07,04,10.50
2012,08,24,07,05,10.60
2012,08,24,07,06,10.60
2012,08,24,07,07,10.60
2012,08,24,07,08,10.70
2012,08,24,07,09,10.70
2012,08,24,07,10,10.70
2012,08,24,07,11,10.70
2012,08,24,07,12,10.80
2012,08,24,07,13,10.80
2012,08,24,07,14,10.80
2012,08,24,07,15,10.80
2012,08,24,07,16,10.90
2012,08,24,07,17,10.90
2012,08,24,07,18,11.00
2012,08,24,07,19,11.10
2012,08,24,07,20,11.10
2012,08,24,07,21,11.20
2012,08,24,07,22,11.30
2012,08,24,07,23,11.30
2012,08,24,07,24,11.40
2012,08,24,07,25,11.50
2012,08,24,07,26,11.60
2012,08,24,07,27,11.70
2012,08,24,07,28,11.80
2012,08,24,07,29,11.90
2012,08,24,07,30,12.10
2012,08,24,07,31,12.20
2012,08,24,07,32,12.30
2012,08,24,07,33,12.50
2012,08,24,07,34,12.60
2012,08,24,07,35,12.60
2012,08,24,07,36,12.70
2012,08,24,07,37,12.70
2012,08,24,07,38,12.70
2012,08,24,07,39,12.70
2012,08,24,07,40,12.70
2012,08,24,07,41,12.80
2012,08,24,07,42,12.80
2012,08,24,07,43,12.90
2012,08,24,07,44,13.00
2012,08,24,07,45,13.00
2012,08,24,07,46,13.10
2012,08,24,07,47,13.10
2012,08,24,07,48,13.10
2012,08,24,07,49,13.10
2012,08,24,07,50,13.10
2012,08,24,07,51,13.10
2012,08,24,07,52,13.10
2012,08,24,07,53,13.10
2012,08,24,07,54,13.10
2012,08,24,07,55,13.20
2012,08,24,07,56,13.20
2012,08,24,07,57,13.20
2012,08,24,07,58,13.30
2012,08,24,07,59,13.40
2012,08,24,08,00,13.50
2012,08,24,08,01,13.60
2012,08,24,08,02,13.70
2012,08,24,08,03,13.70
2012,08,24,08,04,13.80
2012,08,24,08,05,13.90
2012,08,24,08,06,14.00
2012,08,24,08,07,14.00
2012,08,24,08,08,14.10
2012,08,24,08,09,14.10
2012,08,24,08,10,14.10
2012,08,24,08,11,14.10
2012,08,24,08,12,14.20
2012,08,24,08,13,14.20
2012,08,24,08,14,14.20
2012,08,24,08,15,14.20
2012,08,24,08,16,14.20
2012,08,24,08,17,14.20
2012,08,24,08,18,14.20
2012,08,24,08,19,14.30
2012,08,24,08,20,14.40
2012,08,24,08,21,14.60
2012,08,24,08,22,14.60
2012,08,24,08,23,14.80
2012,08,24,08,24,14.90
2012,08,24,08,25,15.00
2012,08,24,08,26,15.00
2012,08,24,08,27,15.20
2012,08,24,08,28,15.30
2012,08,24,08,29,15.30
2012,08,24,08,30,15.30
2012,08,24,08,31,15.20
2012,08,24,08,32,15.00
2012,08,24,08,33,15.00
2012,08,24,08,34,15.00
2012,08,24,08,35,14.90
2012,08,24,08,36,14.80
2012,08,24,08,37,14.70
2012,08,24,08,38,14.60
2012,08,24,08,39,14.60
2012,08,24,08,40,14.60
2012,08,24,08,41,14.60
2012,08,24,08,42,14.60
2012,08,24,08,43,14.70
2012,08,24,08,44,14.80
2012,08,24,08,45,14.90
2012,08,24,08,46,15.00
2012,08,24,08,47,15.00
2012,08,24,08,48,15.20
2012,08,24,08,49,15.30
2012,08,24,08,50,15.40
2012,08,24,08,51,15.40
2012,08,24,08,52,15.50
2012,08,24,08,53,15.50
2012,08,24,08,54,15.50
2012,08,24,08,55,15.40
2012,08,24,08,56,15.40
2012,08,24,08,57,15.40
2012,08,24,08,58,15.40
2012,08,24,08,59,15.50
2012,08,24,09,00,15.60
2012,08,24,09,01,15.80
2012,08,24,09,02,15.90
2012,08,24,09,03,15.90
2012,08,24,09,04,16.00
2012,08,24,09,05,16.10
2012,08,24,09,06,16.00
2012,08,24,09,07,16.10
2012,08,24,09,08,16.20
2012,08,24,09,09,16.20
2012,08,24,09,10,16.30
2012,08,24,09,11,16.30
2012,08,24,09,12,16.30
2012,08,24,09,13,16.40
2012,08,24,09,14,16.40
2012,08,24,09,15,16.40
2012,08,24,09,16,16.50
2012,08,24,09,17,16.40
2012,08,24,09,18,16.40
2012,08,24,09,19,16.40
2012,08,24,09,20,16.40
2012,08,24,09,21,16.40
2012,08,24,09,22,16.40
2012,08,24,09,23,16.40
2012,08,24,09,24,16.40
2012,08,24,09,25,16.30
2012,08,24,09,26,16.30
2012,08,24,09,27,16.20
2012,08,24,09,28,16.10
2012,08,24,09,29,16.00
2012,08,24,09,30,15.80
2012,08,24,09,31,15.70
2012,08,24,09,32,15.70
2012,08,24,09,33,15.70
2012,08,24,09,34,15.60
2012,08,24,09,35,15.60
2012,08,24,09,36,15.70
2012,08,24,09,37,15.70
2012,08,24,09,38,15.80
2012,08,24,09,39,15.80
2012,08,24,09,40,15.90
2012,08,24,09,41,15.90
2012,08,24,09,42,16.00
2012,08,24,09,43,16.10
2012,08,24,09,44,16.20
2012,08,24,09,45,16.20
2012,08,24,09,46,16.30
2012,08,24,09,47,16.30
2012,08,24,09,48,16.30
2012,08,24,09,49,16.30
2012,08,24,09,50,16.30
2012,08,24,09,51,16.30
2012,08,24,09,52,16.20
2012,08,24,09,53,16.20
2012,08,24,09,54,16.10
2012,08,24,09,55,16.10
2012,08,24,09,56,16.10
2012,08,24,09,57,16.10
2012,08,24,09,58,16.20
2012,08,24,09,59,16.30
2012,08,24,10,00,16.40
2012,08,24,10,01,16.40
2012,08,24,10,02,16.50
2012,08,24,10,03,16.60
2012,08,24,10,04,16.70
2012,08,24,10,05,16.80
2012,08,24,10,06,16.90
2012,08,24,10,07,16.90
2012,08,24,10,08,17.00
2012,08,24,10,09,17.10
2012,08,24,10,10,17.10
2012,08,24,10,11,17.10
2012,08,24,10,12,17.10
2012,08,24,10,13,17.20
2012,08,24,10,14,17.20
2012,08,24,10,15,17.30
2012,08,24,10,16,17.40
2012,08,24,10,17,17.50
2012,08,24,10,18,17.70
2012,08,24,10,19,17.70
2012,08,24,10,20,17.80
2012,08,24,10,21,17.80
2012,08,24,10,22,17.80
2012,08,24,10,23,17.70
2012,08,24,10,24,17.70
2012,08,24,10,25,17.70
2012,08,24,10,26,17.70
2012,08,24,10,27,17.70
2012,08,24,10,28,17.70
2012,08,24,10,29,17.60
2012,08,24,10,30,17.60
2012,08,24,10,31,17.50
2012,08,24,10,32,17.40
2012,08,24,10,33,17.30
2012,08,24,10,34,17.30
2012,08,24,10,35,17.30
2012,08,24,10,36,17.40
2012,08,24,10,37,17.40
2012,08,24,10,38,17.30
2012,08,24,10,39,17.20
2012,08,24,10,40,17.10
2012,08,24,10,41,16.90
2012,08,24,10,42,16.90
2012,08,24,10,43,16.90
2012,08,24,10,44,16.90
2012,08,24,10,45,16.90
2012,08,24,10,46,17.00
2012,08,24,10,47,17.00
2012,08,24,10,48,17.00
2012,08,24,10,49,17.00
2012,08,24,10,50,17.00
2012,08,24,10,51,17.00
2012,08,24,10,52,17.00
2012,08,24,10,53,17.00
2012,08,24,10,54,17.00
2012,08,24,10,55,17.00
2012,08,24,10,56,16.90
2012,08,24,10,57,16.60
2012,08,24,10,58,16.50
2012,08,24,10,59,16.70
2012,08,24,11,00,16.80
2012,08,24,11,01,16.80
2012,08,24,11,02,16.70
2012,08,24,11,03,16.70
2012,08,24,11,04,16.70
2012,08,24,11,05,16.80
2012,08,24,11,06,16.80
2012,08,24,11,07,16.70
2012,08,24,11,08,16.70
2012,08,24,11,09,16.70
2012,08,24,11,10,16.70
2012,08,24,11,11,16.80
2012,08,24,11,12,16.90
2012,08,24,11,13,16.90
2012,08,24,11,14,17.00
2012,08,24,11,15,17.00
2012,08,24,11,16,16.90
2012,08,24,11,17,16.80
2012,08,24,11,18,16.70
2012,08,24,11,19,16.70
2012,08,24,11,20,16.60
2012,08,24,11,21,16.50
2012,08,24,11,22,16.50
2012,08,24,11,23,16.40
2012,08,24,11,24,16.40
2012,08,24,11,25,16.30
2012,08,24,11,26,16.20
2012,08,24,11,27,16.20
2012,08,24,11,28,16.10
2012,08,24,11,29,16.10
2012,08,24,11,30,16.20
2012,08,24,11,31,16.40
2012,08,24,11,32,16.50
2012,08,24,11,33,16.60
2012,08,24,11,34,16.70
2012,08,24,11,35,16.70
2012,08,24,11,36,16.70
2012,08,24,11,37,16.70
2012,08,24,11,38,16.60
2012,08,24,11,39,16.60
2012,08,24,11,40,16.60
2012,08,24,11,41,16.60
2012,08,24,11,42,16.70
2012,08,24,11,43,16.80
2012,08,24,11,44,16.90
2012,08,24,11,45,16.90
2012,08,24,11,46,16.90
2012,08,24,11,47,16.80
2012,08,24,11,48,16.80
2012,08,24,11,49,16.70
2012,08,24,11,50,16.70
2012,08,24,11,51,16.70
2012,08,24,11,52,16.70
2012,08,24,11,53,16.80
2012,08,24,11,54,16.80
2012,08,24,11,55,16.90
2012,08,24,11,56,17.00
2012,08,24,11,57,17.10
2012,08,24,11,58,17.20
2012,08,24,11,59,17.20
2012,08,24,12,00,17.20
2012,08,24,12,01,17.20
2012,08,24,12,02,17.10
2012,08,24,12,03,17.00
2012,08,24,12,04,17.00
2012,08,24,12,05,17.00
2012,08,24,12,06,17.00
2012,08,24,12,07,16.90
2012,08,24,12,08,16.80
2012,08,24,12,09,16.70
2012,08,24,12,10,16.70
2012,08,24,12,11,16.60
2012,08,24,12,12,16.50
2012,08,24,12,13,16.50
2012,08,24,12,14,16.50
2012,08,24,12,15,16.40
2012,08,24,12,16,16.40
2012,08,24,12,17,16.50
2012,08,24,12,18,16.50
2012,08,24,12,19,16.60
2012,08,24,12,20,16.50
2012,08,24,12,21,16.50
2012,08,24,12,22,16.60
2012,08,24,12,23,16.70
2012,08,24,12,24,16.70
2012,08,24,12,25,16.70
2012,08,24,12,26,16.70
2012,08,24,12,27,16.50
2012,08,24,12,28,16.50
2012,08,24,12,29,16.50
2012,08,24,12,30,16.50
2012,08,24,12,31,16.40
2012,08,24,12,32,16.40
2012,08,24,12,33,16.40
2012,08,24,12,34,16.40
2012,08,24,12,35,16.40
2012,08,24,12,36,16.40
2012,08,24,12,37,16.30
2012,08,24,12,38,16.40
2012,08,24,12,39,16.40
2012,08,24,12,40,16.40
2012,08,24,12,41,16.40
2012,08,24,12,42,16.40
2012,08,24,12,43,16.60
2012,08,24,12,44,16.80
2012,08,24,12,45,16.90
2012,08,24,12,46,17.00
2012,08,24,12,47,17.20
2012,08,24,12,48,17.20
2012,08,24,12,49,17.20
2012,08,24,12,50,17.30
2012,08,24,12,51,17.40
2012,08,24,12,52,17.40
2012,08,24,12,53,17.30
2012,08,24,12,54,17.20
2012,08,24,12,55,17.30
2012,08,24,12,56,17.30
2012,08,24,12,57,17.20
2012,08,24,12,58,17.20
2012,08,24,12,59,17.20
2012,08,24,13,00,17.10
2012,08,24,13,01,17.10
2012,08,24,13,02,17.00
2012,08,24,13,03,16.90
2012,08,24,13,04,16.90
2012,08,24,13,05,17.00
2012,08,24,13,06,17.10
2012,08,24,13,07,17.10
2012,08,24,13,08,17.20
2012,08,24,13,09,17.30
2012,08,24,13,10,17.40
2012,08,24,13,11,17.40
2012,08,24,13,12,17.40
2012,08,24,13,13,17.30
2012,08,24,13,14,17.30
2012,08,24,13,15,17.20
2012,08,24,13,16,17.20
2012,08,24,13,17,17.10
2012,08,24,13,18,17.10
2012,08,24,13,19,17.10
2012,08,24,13,20,17.20
2012,08,24,13,21,17.40
2012,08,24,13,22,17.50
2012,08,24,13,23,17.40
2012,08,24,13,24,17.40
2012,08,24,13,25,17.30
2012,08,24,13,26,17.20
2012,08,24,13,27,17.10
2012,08,24,13,28,17.10
2012,08,24,13,29,17.10
2012,08,24,13,30,17.10
2012,08,24,13,31,17.10
2012,08,24,13,32,17.00
2012,08,24,13,33,16.90
2012,08,24,13,34,17.00
2012,08,24,13,35,17.10
2012,08,24,13,36,17.10
2012,08,24,13,37,17.20
2012,08,24,13,38,17.30
2012,08,24,13,39,17.40
2012,08,24,13,40,17.60
2012,08,24,13,41,17.80
2012,08,24,13,42,17.90
2012,08,24,13,43,17.80
2012,08,24,13,44,17.90
2012,08,24,13,45,17.90
2012,08,24,13,46,17.80
2012,08,24,13,47,17.70
2012,08,24,13,48,17.70
2012,08,24,13,49,17.70
2012,08,24,13,50,17.80
2012,08,24,13,51,17.70
2012,08,24,13,52,17.60
2012,08,24,13,53,17.50
2012,08,24,13,54,17.50
2012,08,24,13,55,17.50
2012,08,24,13,56,17.40
2012,08,24,13,57,17.30
2012,08,24,13,58,17.50
2012,08,24,13,59,17.60
2012,08,24,14,00,17.60
2012,08,24,14,01,17.70
2012,08,24,14,02,17.90
2012,08,24,14,03,18.00
2012,08,24,14,04,18.10
2012,08,24,14,05,18.00
2012,08,24,14,06,17.80
2012,08,24,14,07,17.70
2012,08,24,14,08,17.70
2012,08,24,14,09,17.70
2012,08,24,14,10,17.70
2012,08,24,14,11,17.80
2012,08,24,14,12,17.90
2012,08,24,14,13,18.00
2012,08,24,14,14,18.10
2012,08,24,14,15,18.00
2012,08,24,14,16,17.90
2012,08,24,14,17,17.80
2012,08,24,14,18,17.70
2012,08,24,14,19,17.60
2012,08,24,14,20,17.50
2012,08,24,14,21,17.50
2012,08,24,14,22,17.60
2012,08,24,14,23,17.60
2012,08,24,14,24,17.60
2012,08,24,14,25,17.50
2012,08,24,14,26,17.50
2012,08,24,14,27,17.60
2012,08,24,14,28,17.60
2012,08,24,14,29,17.50
2012,08,24,14,30,17.60
2012,08,24,14,31,17.70
2012,08,24,14,32,17.80
2012,08,24,14,33,17.80
2012,08,24,14,34,17.80
2012,08,24,14,35,17.80
2012,08,24,14,36,17.90
2012,08,24,14,37,17.90
2012,08,24,14,38,17.80
2012,08,24,14,39,17.80
2012,08,24,14,40,17.70
2012,08,24,14,41,17.70
2012,08,24,14,42,17.60
2012,08,24,14,43,17.70
2012,08,24,14,44,17.80
2012,08,24,14,45,17.80
2012,08,24,14,46,17.80
2012,08,24,14,47,17.80
2012,08,24,14,48,18.00
2012,08,24,14,49,18.10
2012,08,24,14,50,18.30
2012,08,24,14,51,18.50
2012,08,24,14,52,18.50
2012,08,24,14,53,18.40
2012,08,24,14,54,18.30
2012,08,24,14,55,18.20
2012,08,24,14,56,18.00
2012,08,24,14,57,17.90
2012,08,24,14,58,17.80
2012,08,24,14,59,17.80
2012,08,24,15,00,17.80
2012,08,24,15,01,17.70
2012,08,24,15,02,17.70
2012,08,24,15,03,17.70
2012,08,24,15,04,17.80
2012,08,24,15,05,17.80
2012,08,24,15,06,17.90
2012,08,24,15,07,18.00
2012,08,24,15,08,18.10
2012,08,24,15,09,18.10
2012,08,24,15,10,18.20
2012,08,24,15,11,18.20
2012,08,24,15,12,18.20
2012,08,24,15,13,18.20
2012,08,24,15,14,18.20
2012,08,24,15,15,18.20
2012,08,24,15,16,18.10
2012,08,24,15,17,18.00
2012,08,24,15,18,17.90
2012,08,24,15,19,18.00
2012,08,24,15,20,18.00
2012,08,24,15,21,18.00
2012,08,24,15,22,17.90
2012,08,24,15,23,17.90
2012,08,24,15,24,17.80
2012,08,24,15,25,17.80
2012,08,24,15,26,17.70
2012,08,24,15,27,17.80
2012,08,24,15,28,17.90
2012,08,24,15,29,18.00
2012,08,24,15,30,18.10
2012,08,24,15,31,18.10
2012,08,24,15,32,18.10
2012,08,24,15,33,18.20
2012,08,24,15,34,18.30
2012,08,24,15,35,18.30
2012,08,24,15,36,18.30
2012,08,24,15,37,18.30
2012,08,24,15,38,18.30
2012,08,24,15,39,18.20
2012,08,24,15,40,18.10
2012,08,24,15,41,18.10
2012,08,24,15,42,18.10
2012,08,24,15,43,18.10
2012,08,24,15,44,18.20
2012,08,24,15,45,18.20
2012,08,24,15,46,18.30
2012,08,24,15,47,18.30
2012,08,24,15,48,18.30
2012,08,24,15,49,18.30
2012,08,24,15,50,18.30
2012,08,24,15,51,18.30
2012,08,24,15,52,18.30
2012,08,24,15,53,18.30
2012,08,24,15,54,18.20
2012,08,24,15,55,18.10
2012,08,24,15,56,18.10
2012,08,24,15,57,18.00
2012,08,24,15,58,18.00
2012,08,24,15,59,18.00
2012,08,24,16,00,18.00
2012,08,24,16,01,18.00
2012,08,24,16,02,18.00
2012,08,24,16,03,18.00
2012,08,24,16,04,18.00
2012,08,24,16,05,18.00
2012,08,24,16,06,18.00
2012,08,24,16,07,18.00
2012,08,24,16,08,18.00
2012,08,24,16,09,18.00
2012,08,24,16,10,18.10
2012,08,24,16,11,18.10
2012,08,24,16,12,18.20
2012,08,24,16,13,18.10
2012,08,24,16,14,18.10
2012,08,24,16,15,18.10
2012,08,24,16,16,18.10
2012,08,24,16,17,18.20
2012,08,24,16,18,18.20
2012,08,24,16,19,18.10
2012,08,24,16,20,18.10
2012,08,24,16,21,18.10
2012,08,24,16,22,18.10
2012,08,24,16,23,18.20
2012,08,24,16,24,18.10
2012,08,24,16,25,18.00
2012,08,24,16,26,18.00
2012,08,24,16,27,17.90
2012,08,24,16,28,18.00
2012,08,24,16,29,18.00
2012,08,24,16,30,18.10
2012,08,24,16,31,18.10
2012,08,24,16,32,18.20
2012,08,24,16,33,18.20
2012,08,24,16,34,18.10
2012,08,24,16,35,18.10
2012,08,24,16,36,18.10
2012,08,24,16,37,18.10
2012,08,24,16,38,18.10
2012,08,24,16,39,18.20
2012,08,24,16,40,18.20
2012,08,24,16,41,18.20
2012,08,24,16,42,18.20
2012,08,24,16,43,18.20
2012,08,24,16,44,18.20
2012,08,24,16,45,18.20
2012,08,24,16,46,18.20
2012,08,24,16,47,18.30
2012,08,24,16,48,18.30
2012,08,24,16,49,18.30
2012,08,24,16,50,18.20
2012,08,24,16,51,18.30
2012,08,24,16,52,18.30
2012,08,24,16,53,18.20
2012,08,24,16,54,18.20
2012,08,24,16,55,18.30
2012,08,24,16,56,18.30
2012,08,24,16,57,18.30
2012,08,24,16,58,18.30
2012,08,24,16,59,18.30
2012,08,24,17,00,18.30
2012,08,24,17,01,18.20
2012,08,24,17,02,18.20
2012,08,24,17,03,18.20
2012,08,24,17,04,18.20
2012,08,24,17,05,18.30
2012,08,24,17,06,18.30
2012,08,24,17,07,18.30
2012,08,24,17,08,18.30
2012,08,24,17,09,18.20
2012,08,24,17,10,18.10
2012,08,24,17,11,18.10
2012,08,24,17,12,18.20
2012,08,24,17,13,18.20
2012,08,24,17,14,18.30
2012,08,24,17,15,18.40
2012,08,24,17,16,18.50
2012,08,24,17,17,18.60
2012,08,24,17,18,18.60
2012,08,24,17,19,18.60
2012,08,24,17,20,18.60
2012,08,24,17,21,18.60